BEIDOU-3 M7

Last updated on May 15, 2019, 3:07 a.m. UTC

1 43245U 18029A   19134.09936495 -.00000100  00000-0  00000+0 0  9992
2 43245  55.2049  29.1302 0001586 329.0659 347.8202  1.86232876  7631
UTC
Height (km)
Latitude
Longitude
Inclination
Orbital Period
UTC large
Height (km)
Speed (km/s)
/
Latitude / Longitude
Inclination (degrees)
Orbital Period (minutes)
Azimuth
Elevation
Range (km)
Doppler Factor
iOS Compass Heading
iOS Angle

Next 30 passes for location: Hong Kong

Rise time Rise Azimuth (degrees) Set time Set Azimuth (degrees) Duration Max altitude (degrees)

No matching passes for this satellites